sat.trackr.live / text

‹ back to catalog

STARLINK-36954

NORAD 68057 · 2026-041T

PAYLOAD ACTIVE UNKNOWN

§ Identity

Operator
Country
US
Launch date
2026-03-02
Launch site
AFETR
Launch vehicle
Mass (kg)
RCS (m²)

Purposes: comms

External: N2YO · Heavens-Above · Gunter

§ Orbital elements

Epoch: 2026-09-19T14:55:51.633696Z

Period
93.85 min
Inclination
53.1599°
Eccentricity
0.0000633
Mean motion
15.34394630 rev/d
Perigee alt
462.3 km
Apogee alt
463.2 km
Semi-major
6,840.9 km
B*
8.0707e-4
RAAN
223.8649°
Arg perigee
106.9374°
Mean anomaly
253.1698°
Rev number
3,115

§ Raw data

STARLINK-369541 68057U 26041T   26262.62212539  .00026986  00000+0  80707-3 0  99922 68057  53.1599 223.8649 0000633 106.9374 253.1698 15.34394630 31158

JSON: /api/v1/satellites/68057 · /tle

For live sub-satellite position, see the globe view (requires WebGL).

§ Visibility from observer

Set your observer location to see the next 7 days of passes ≥ 10°. The values pass through the URL so the page stays shareable.

No JS? Fill the form by hand. The geolocation button needs JavaScript.